Date String (YYYY-MM-DD hh:mm:ss) UTC,Instrument flags,Ambient pressure (hPa),Sample flow (lpm),Bypass flow (lpm),Sample temperature (°C),Ambient temperature (°C),ASC tube jacket temperature (°C),LED temperature (°C),Box temperature (°C),Sample RH (%),Span deviation,Mass concentration (μg/m³),Mass concentration (μg/m³),Mass concentration (μg/m³)
DateTimeUTC,F1_M11,P_M11,Q1_M11,Q2_M11,T1_M11,T2_M11,T3_M11,T4_M11,T5_M11,U1_M11,ZSPAN_M11,X0_M11,X2_M11,X1_M11
2021-09-24 12:00:00,,0830.6,5.00,0.00,30.2,29.2,00.0,39.4,31.9,11.8,0001.7,0016.52,0011.50,0010.67
2021-09-24 12:01:00,,0830.6,5.00,0.00,30.1,29.2,00.0,39.4,31.9,11.8,0001.7,0016.18,0011.51,0010.70
2021-09-24 12:02:00,,0830.6,4.99,0.00,30.1,29.2,00.0,39.4,31.9,11.8,0001.7,0016.15,0011.54,0010.73
2021-09-24 12:03:00,,0830.6,4.99,0.00,30.1,29.1,00.0,39.3,31.8,11.8,0001.5,0016.35,0011.59,0010.76
2021-09-24 12:04:00,,0830.6,4.99,0.00,30.1,29.1,00.0,39.3,31.8,11.9,0001.4,0016.40,0011.64,0010.83
2021-09-24 12:05:00,,0830.6,5.02,0.00,30.1,29.1,00.0,39.3,31.8,11.8,0001.5,0016.46,0011.69,0010.89
2021-09-24 12:06:00,,0830.6,4.98,0.00,30.0,29.1,00.0,39.3,31.7,11.9,0001.4,0016.48,0011.69,0010.88
2021-09-24 12:07:00,,0830.6,5.01,0.00,30.0,29.0,00.0,39.3,31.7,11.9,0001.4,0016.96,0011.70,0010.89
2021-09-24 12:08:00,,0830.6,4.98,0.00,30.0,29.0,00.0,39.3,31.7,11.9,0001.6,0016.95,0011.68,0010.88
2021-09-24 12:09:00,,0830.6,5.01,0.00,30.0,29.0,00.0,39.3,31.7,11.9,0001.6,0017.21,0011.67,0010.83
2021-09-24 12:10:00,,0830.6,5.00,0.00,30.0,29.0,00.0,39.2,31.7,11.9,0001.9,0018.00,0011.64,0010.80
2021-09-24 12:11:00,,0830.6,5.00,0.00,29.9,29.0,00.0,39.2,31.7,11.9,0002.2,0018.06,0011.66,0010.78
2021-09-24 12:12:00,,0830.6,5.01,0.00,29.9,29.0,00.0,39.2,31.7,11.9,0002.3,0018.37,0011.65,0010.75
2021-09-24 12:13:00,,0830.6,5.00,0.00,29.9,29.0,00.0,39.2,31.6,11.9,0002.3,0018.57,0011.62,0010.72
2021-09-24 12:14:00,,0830.6,5.00,0.00,29.9,29.0,00.0,39.2,31.6,11.9,0002.4,0018.53,0011.53,0010.67
2021-09-24 12:15:00,,0830.6,5.00,0.00,29.9,29.0,00.0,39.2,31.6,11.9,0002.3,0018.45,0011.46,0010.62
2021-09-24 12:16:00,,0830.6,5.00,0.00,29.9,29.0,00.0,39.2,31.6,11.9,0002.1,0018.28,0011.35,0010.54
2021-09-24 12:17:00,,0830.6,5.00,0.00,29.9,28.9,00.0,39.1,31.6,11.9,0002.2,0018.14,0011.26,0010.49
2021-09-24 12:18:00,,0830.6,5.00,0.00,29.9,28.9,00.0,39.1,31.6,11.9,0002.2,0017.82,0011.15,0010.42
2021-09-24 12:19:00,,0830.6,5.00,0.00,29.9,28.9,00.0,39.1,31.6,11.9,0002.0,0018.05,0011.11,0010.38
2021-09-24 12:20:00,,0830.6,5.00,0.00,29.9,29.0,00.0,39.1,31.6,11.9,0002.1,0017.77,0011.07,0010.35
2021-09-24 12:21:00,,0830.6,5.00,0.00,29.9,29.0,00.0,39.1,31.6,11.9,0002.2,0016.80,0011.05,0010.35
2021-09-24 12:22:00,,0830.6,5.01,0.00,29.9,29.0,00.0,39.1,31.6,12.0,0002.1,0016.95,0011.02,0010.36
2021-09-24 12:23:00,,0830.6,4.99,0.00,29.9,29.0,00.0,39.1,31.6,12.0,0002.2,0016.69,0011.04,0010.41
2021-09-24 12:24:00,,0830.6,5.00,0.00,29.9,29.0,00.0,39.1,31.6,11.9,0002.3,0016.38,0011.05,0010.43
2021-09-24 12:25:00,,0830.6,5.00,0.00,29.9,29.0,00.0,39.1,31.6,11.9,0002.3,0016.35,0011.11,0010.44
2021-09-24 12:26:00,,0830.6,5.00,0.00,29.9,29.1,00.0,39.1,31.7,11.9,0002.5,0016.60,0011.15,0010.46
2021-09-24 12:27:00,,0830.6,5.00,0.00,29.9,29.1,00.0,39.1,31.7,12.0,0002.5,0017.06,0011.29,0010.52
2021-09-24 12:28:00,,0830.7,5.00,0.00,30.0,29.1,00.0,39.1,31.7,12.0,0002.6,0017.38,0011.41,0010.61
2021-09-24 12:29:00,,0830.7,5.01,0.00,30.0,29.1,00.0,39.1,31.7,12.0,0002.7,0017.58,0011.55,0010.70
2021-09-24 12:30:00,,0830.7,5.00,0.00,30.0,29.1,00.0,39.1,31.7,11.9,0002.7,0017.79,0011.57,0010.70
2021-09-24 12:31:00,,0830.7,5.01,0.00,30.0,29.2,00.0,39.1,31.7,11.8,0002.7,0017.84,0011.51,0010.64
2021-09-24 12:32:00,,0830.8,5.00,0.00,30.0,29.1,00.0,39.1,31.7,11.9,0002.4,0018.09,0011.51,0010.63
2021-09-24 12:33:00,,0830.8,5.00,0.00,30.0,29.1,00.0,39.1,31.7,11.8,0002.3,0017.92,0011.48,0010.57
2021-09-24 12:34:00,,0830.8,4.99,0.00,30.0,29.1,00.0,39.1,31.7,11.8,0002.4,0017.74,0011.41,0010.47
2021-09-24 12:35:00,,0830.8,5.02,0.00,30.0,29.1,00.0,39.1,31.7,11.8,0002.3,0017.80,0011.37,0010.41
2021-09-24 12:36:00,,0830.8,5.00,0.00,30.0,29.1,00.0,39.1,31.7,11.8,0002.3,0017.76,0011.28,0010.33
2021-09-24 12:37:00,,0830.8,5.00,0.00,30.0,29.1,00.0,39.1,31.7,11.9,0002.3,0017.76,0011.25,0010.27
2021-09-24 12:38:00,,0830.8,5.00,0.00,30.0,29.1,00.0,39.1,31.8,11.9,0002.4,0018.09,0011.12,0010.18
2021-09-24 12:39:00,,0830.9,5.01,0.00,30.0,29.1,00.0,39.2,31.8,11.9,0002.4,0017.95,0011.00,0010.07
2021-09-24 12:40:00,,0830.9,4.99,0.00,30.0,29.1,00.0,39.2,31.8,11.9,0002.3,0017.45,0010.86,0009.98
2021-09-24 12:41:00,,0830.9,5.01,0.00,30.1,29.1,00.0,39.2,31.8,11.9,0002.4,0017.14,0010.78,0009.94
2021-09-24 12:42:00,,0830.9,4.98,0.00,30.1,29.1,00.0,39.2,31.7,11.9,0002.4,0016.97,0010.80,0009.97
2021-09-24 12:43:00,,0830.9,5.01,0.00,30.1,29.1,00.0,39.2,31.8,11.9,0002.6,0016.71,0010.80,0009.97
2021-09-24 12:44:00,,0830.9,5.01,0.00,30.1,29.1,00.0,39.2,31.7,11.9,0002.7,0016.49,0010.80,0009.98
2021-09-24 12:45:00,,0830.9,4.99,0.00,30.1,29.1,00.0,39.2,31.7,11.9,0002.7,0016.45,0010.79,0009.99
2021-09-24 12:46:00,,0830.9,5.01,0.00,30.1,29.1,00.0,39.2,31.8,11.9,0002.6,0016.50,0010.78,0009.99
2021-09-24 12:47:00,,0830.9,5.01,0.00,30.1,29.1,00.0,39.2,31.8,11.9,0002.5,0017.03,0010.82,0010.01
2021-09-24 12:48:00,,0830.9,5.00,0.00,30.1,29.1,00.0,39.2,31.8,11.9,0002.6,0016.96,0010.78,0010.01
2021-09-24 12:49:00,,0830.9,5.00,0.00,30.1,29.1,00.0,39.2,31.8,11.8,0002.4,0016.10,0010.73,0009.99
2021-09-24 12:50:00,,0830.9,5.00,0.00,30.1,29.1,00.0,39.2,31.8,11.8,0002.3,0015.89,0010.67,0009.98
2021-09-24 12:51:00,,0831.0,5.01,0.00,30.1,29.2,00.0,39.2,31.8,11.8,0002.3,0015.93,0010.65,0009.95
2021-09-24 12:52:00,,0830.9,4.99,0.00,30.1,29.1,00.0,39.2,31.7,11.8,0002.3,0015.89,0010.64,0009.91
2021-09-24 12:53:00,,0830.9,5.00,0.00,30.1,29.1,00.0,39.2,31.8,11.7,0002.4,0016.44,0010.60,0009.88
2021-09-24 12:54:00,,0831.0,5.00,0.00,30.1,29.1,00.0,39.2,31.8,11.8,0002.8,0016.50,0010.61,0009.86
2021-09-24 12:55:00,,0831.0,5.00,0.00,30.1,29.1,00.0,39.2,31.8,11.7,0002.8,0016.47,0010.57,0009.83
2021-09-24 12:56:00,,0831.0,5.00,0.00,30.1,29.1,00.0,39.2,31.8,11.7,0002.9,0016.70,0010.57,0009.81
2021-09-24 12:57:00,,0831.0,5.01,0.00,30.1,29.1,00.0,39.2,31.8,11.7,0002.9,0016.96,0010.54,0009.78
2021-09-24 12:58:00,,0831.0,4.99,0.00,30.1,29.1,00.0,39.2,31.8,11.7,0002.9,0016.63,0010.49,0009.77
2021-09-24 12:59:00,,0831.1,4.99,0.00,30.1,29.1,00.0,39.2,31.8,11.7,0003.0,0016.64,0010.45,0009.74
